This is the latest recevied weather packets stored in our database for station/object YC0ACE-13. If no packets are shown the sender has not sent any weather packets the latest 10 day(s).
| Time | Temp. | Humidity | Pressure | Rain* | Wind** | Luminosity | Snow |
|---|---|---|---|---|---|---|---|
| 1777968325 | 31.11° C | 69% | 1012.5 hPa | 0 mm | - | 283 W/m² | - |
| 1777968025 | 31.11° C | 69% | 1012.5 hPa | 0 mm | - | 366 W/m² | - |
| 1777967724 | 30.56° C | 70% | 1012.5 hPa | 0 mm | - | 413 W/m² | - |
| 1777967425 | 30.56° C | 69% | 1012.9 hPa | 0 mm | - | 393 W/m² | - |
| 1777967125 | 31.11° C | 69% | 1012.9 hPa | 0 mm | - | 374 W/m² | - |
| 1777966825 | 30.56° C | 70% | 1012.9 hPa | 0 mm | - | 394 W/m² | - |
| 1777966525 | 31.11° C | 69% | 1012.9 hPa | 0 mm | - | 365 W/m² | - |
| 1777966226 | 30.56° C | 70% | 1012.9 hPa | 0 mm | - | 335 W/m² | - |
| 1777965924 | 30.56° C | 70% | 1013.2 hPa | 0 mm | - | 329 W/m² | - |
| 1777965624 | 30.56° C | 71% | 1013.2 hPa | 0 mm | - | 350 W/m² | - |
| 1777965324 | 30.56° C | 70% | 1013.2 hPa | 0 mm | - | 343 W/m² | - |
| 1777965026 | 30.56° C | 70% | 1012.9 hPa | 0 mm | - | 337 W/m² | - |
| 1777964725 | 30.56° C | 70% | 1012.9 hPa | 0 mm | - | 344 W/m² | - |
| 1777964425 | 31.11° C | 68% | 1013.2 hPa | 0 mm | - | 358 W/m² | - |
| 1777964124 | 30.56° C | 67% | 1013.2 hPa | 0 mm | - | 416 W/m² | - |
| 1777963825 | 30.56° C | 68% | 1013.2 hPa | 0 mm | - | 433 W/m² | - |
| 1777963525 | 30.56° C | 69% | 1013.5 hPa | 0 mm | - | 397 W/m² | - |
| 1777963224 | 31.11° C | 69% | 1013.5 hPa | 0 mm | - | 374 W/m² | - |
| 1777962925 | 31.11° C | 68% | 1013.2 hPa | 0 mm | - | 388 W/m² | - |
| 1777962625 | 31.11° C | 69% | 1013.5 hPa | 0 mm | - | 402 W/m² | - |
| 1777962324 | 31.11° C | 69% | 1013.5 hPa | 0 mm | - | 402 W/m² | - |
| 1777962025 | 30.56° C | 70% | 1013.5 hPa | 0 mm | - | 403 W/m² | - |
| 1777961724 | 30.56° C | 71% | 1013.9 hPa | 0 mm | - | 420 W/m² | - |
| 1777961425 | 30.56° C | 71% | 1013.9 hPa | 0 mm | - | 459 W/m² | - |
| 1777961125 | 31.11° C | 70% | 1013.9 hPa | 0 mm | - | 490 W/m² | - |
* Rain latest hour (hover to see other rain measurements)
** Current wind speed in m/s (hover to see current wind gust speed)